C/2023 Q1 ( PanSTARRS )

Japanese version
Home page
Updated on May 3, 2025

---------------------------------------------------------------------

* Profile

Discovery Date August 20, 2023
Magnitude 22.0 mag
Discoverer Pan-STARRS 1 telescope (Haleakala)

* Pictures

* Orbital Elements

Epoch 2025 May 5.0 TT = JDT 2460800.5
T 2024 Dec. 1.13807 TT                                  Pike
q   2.5757324            (2000.0)            P               Q
z  -0.0019342      Peri.   84.42039     -0.00256275     -0.99725325
 +/-0.0000009      Node     7.12442     +0.50178456     -0.06531181
e   1.0049821      Incl.   36.64399     +0.86498883     +0.03493311
From 1053 observations 2023 July 25-2025 Feb. 27, mean residual 0".8.

* Finding Charts

* Magnitudes Graph

        m1 = 8.5 + 5 log d + 12.0 log r

---------------------------------------------------------------------

The orbital elements are published on M.P.E.C. 2025-D254.
The charts are made with StellaNavigator Ver.11 (AstroArts).
The magnitudes graphs are made with Comet for Windows.

---------------------------------------------------------------------

Copyright(C) Seiichi Yoshida (comet@aerith.net). All rights reserved.